軌道要素
Epoch 2012 July 12.0 TT = JDT 2456120.5
T 2012 July 22.16011 TT MPC
q 2.1382024 (2000.0) P Q
z -0.0003066 Peri. 121.99207 -0.29610146 -0.35829893
+/-0.0000002 Node 297.43591 +0.07009046 +0.91632612
e 1.0006555 Incl. 93.96064 +0.95258136 -0.17879686
From 2150 observations 2011 July 25-2013 Apr. 22, mean residual 0".4.
|